• In Italy
  • List of Countries
  • For 7 days
  • Water Temperature
  • Satellite Maps
  • Weather Map
  • Weather Widgets
  • user-avatar
    Login

    Hourly Weather Madinat 'Isa

    Today, 23 June, Saturday

    Time Temperature Precipitation Wind Pressure Humidity
    00:00 +39°C° 0 mm 5 mps 749 mmHg 21%
    01:00 +38°C° 0 mm 6 mps 749 mmHg 22%
    02:00 +38°C° 0 mm 7 mps 750 mmHg 24%
    03:00 +38°C° 0 mm 8 mps 750 mmHg 25%
    04:00 +38°C° 0 mm 8 mps 750 mmHg 28%
    05:00 +37°C° 0 mm 8 mps 750 mmHg 31%
    06:00 +37°C° 0 mm 9 mps 750 mmHg 34%
    07:00 +39°C° 0 mm 9 mps 750 mmHg 30%
    08:00 +40°C° 0 mm 9 mps 751 mmHg 27%
    09:00 +42°C° 0 mm 9 mps 751 mmHg 23%
    10:00 +43°C° 0 mm 9 mps 751 mmHg 22%
    11:00 +43°C° 0 mm 9 mps 751 mmHg 21%
    12:00 +44°C° 0 mm 10 mps 750 mmHg 20%
    13:00 +44°C° 0 mm 9 mps 750 mmHg 20%
    14:00 +43°C° 0 mm 9 mps 750 mmHg 21%
    15:00 +43°C° 0 mm 9 mps 749 mmHg 21%
    16:00 +41°C° 0 mm 8 mps 749 mmHg 22%
    17:00 +41°C° 0 mm 8 mps 749 mmHg 24%
    18:00 +40°C° 0 mm 7 mps 749 mmHg 25%
    19:00 +40°C° 0 mm 6 mps 749 mmHg 26%
    20:00 +39°C° 0 mm 5 mps 749 mmHg 27%
    21:00 +37°C° 0 mm 4 mps 749 mmHg 29%
    22:00 +37°C° 0 mm 4 mps 749 mmHg 28%
    23:00 +37°C° 0 mm 4 mps 749 mmHg 28%

    Tomorrow, 24 June, Sunday

    Time Temperature Precipitation Wind Pressure Humidity
    00:00 +37°C° 0 mm 4 mps 749 mmHg 28%
    01:00 +37°C° 0 mm 5 mps 749 mmHg 29%
    02:00 +36°C° 0 mm 6 mps 749 mmHg 30%
    03:00 +36°C° 0 mm 6 mps 749 mmHg 31%
    04:00 +36°C° 0 mm 6 mps 749 mmHg 30%
    05:00 +36°C° 0 mm 7 mps 749 mmHg 30%
    06:00 +36°C° 0 mm 7 mps 749 mmHg 29%
    07:00 +39°C° 0 mm 7 mps 750 mmHg 26%
    08:00 +40°C° 0 mm 7 mps 750 mmHg 22%
    09:00 +43°C° 0 mm 7 mps 750 mmHg 18%
    10:00 +44°C° 0 mm 7 mps 750 mmHg 17%
    11:00 +44°C° 0 mm 7 mps 750 mmHg 17%
    12:00 +45°C° 0 mm 6 mps 750 mmHg 16%
    13:00 +45°C° 0 mm 6 mps 750 mmHg 18%
    14:00 +45°C° 0 mm 6 mps 749 mmHg 19%
    15:00 +44°C° 0 mm 7 mps 749 mmHg 21%
    16:00 +42°C° 0 mm 6 mps 749 mmHg 24%
    17:00 +41°C° 0 mm 6 mps 749 mmHg 28%
    18:00 +40°C° 0 mm 5 mps 749 mmHg 31%
    19:00 +38°C° 0 mm 4 mps 749 mmHg 33%
    20:00 +37°C° 0 mm 3 mps 749 mmHg 34%
    21:00 +37°C° 0 mm 2 mps 750 mmHg 36%
    22:00 +36°C° 0 mm 2 mps 750 mmHg 35%
    23:00 +36°C° 0 mm 2 mps 749 mmHg 35%

    Day after tomorrow, 25 June, Monday

    Time Temperature Precipitation Wind Pressure Humidity
    00:00 +36°C° 0 mm 3 mps 749 mmHg 34%
    01:00 +36°C° 0 mm 3 mps 749 mmHg 35%
    02:00 +35°C° 0 mm 4 mps 749 mmHg 36%
    03:00 +35°C° 0 mm 4 mps 749 mmHg 37%
    04:00 +35°C° 0 mm 4 mps 749 mmHg 35%
    05:00 +36°C° 0 mm 4 mps 749 mmHg 33%
    06:00 +36°C° 0 mm 4 mps 750 mmHg 31%
    07:00 +38°C° 0 mm 4 mps 750 mmHg 26%
    08:00 +41°C° 0 mm 4 mps 750 mmHg 21%
    09:00 +43°C° 0 mm 5 mps 750 mmHg 17%
    10:00 +45°C° 0 mm 5 mps 750 mmHg 17%
    11:00 +45°C° 0 mm 5 mps 750 mmHg 17%
    12:00 +46°C° 0 mm 5 mps 750 mmHg 18%
    13:00 +46°C° 0 mm 5 mps 749 mmHg 20%
    14:00 +46°C° 0 mm 6 mps 749 mmHg 22%
    15:00 +45°C° 0 mm 6 mps 748 mmHg 25%
    16:00 +44°C° 0 mm 6 mps 748 mmHg 26%
    17:00 +43°C° 0 mm 5 mps 748 mmHg 27%
    18:00 +42°C° 0 mm 5 mps 748 mmHg 28%
    19:00 +41°C° 0 mm 4 mps 748 mmHg 31%
    20:00 +40°C° 0 mm 4 mps 749 mmHg 33%
    21:00 +38°C° 0 mm 3 mps 749 mmHg 35%
    22:00 +38°C° 0 mm 3 mps 749 mmHg 34%
    23:00 +38°C° 0 mm 3 mps 748 mmHg 32%

    26 June, Tuesday

    Time Temperature Precipitation Wind Pressure Humidity
    00:00 +37°C° 0 mm 3 mps 748 mmHg 31%
    01:00 +37°C° 0 mm 3 mps 748 mmHg 30%
    02:00 +37°C° 0 mm 4 mps 748 mmHg 29%
    03:00 +37°C° 0 mm 4 mps 747 mmHg 28%
    04:00 +37°C° 0 mm 4 mps 748 mmHg 28%
    05:00 +39°C° 0 mm 5 mps 748 mmHg 27%
    06:00 +39°C° 0 mm 5 mps 748 mmHg 26%
    07:00 +41°C° 0 mm 5 mps 748 mmHg 23%
    08:00 +42°C° 0 mm 5 mps 748 mmHg 19%
    09:00 +45°C° 0 mm 5 mps 749 mmHg 16%
    10:00 +46°C° 0 mm 6 mps 748 mmHg 17%
    11:00 +47°C° 0 mm 6 mps 748 mmHg 18%
    12:00 +47°C° 0 mm 6 mps 748 mmHg 18%
    13:00 +47°C° 0 mm 6 mps 747 mmHg 19%
    14:00 +47°C° 0 mm 7 mps 747 mmHg 19%
    15:00 +47°C° 0 mm 7 mps 747 mmHg 20%
    16:00 +46°C° 0 mm 7 mps 747 mmHg 22%
    17:00 +45°C° 0 mm 6 mps 747 mmHg 23%
    18:00 +44°C° 0 mm 6 mps 746 mmHg 25%
    19:00 +42°C° 0 mm 5 mps 747 mmHg 27%
    20:00 +41°C° 0 mm 4 mps 747 mmHg 28%
    21:00 +40°C° 0 mm 4 mps 747 mmHg 30%
    22:00 +40°C° 0 mm 4 mps 747 mmHg 28%
    23:00 +40°C° 0 mm 4 mps 746 mmHg 27%

    27 June, Wednesday

    Time Temperature Precipitation Wind Pressure Humidity
    00:00 +40°C° 0 mm 4 mps 746 mmHg 25%
    01:00 +40°C° 0 mm 4 mps 746 mmHg 25%
    02:00 +38°C° 0 mm 4 mps 746 mmHg 25%
    03:00 +38°C° 0 mm 4 mps 745 mmHg 25%
    04:00 +38°C° 0 mm 4 mps 746 mmHg 24%
    05:00 +39°C° 0 mm 5 mps 746 mmHg 22%
    06:00 +40°C° 0 mm 5 mps 746 mmHg 21%
    07:00 +41°C° 0 mm 6 mps 747 mmHg 23%
    08:00 +43°C° 0 mm 7 mps 747 mmHg 24%
    09:00 +45°C° 0 mm 8 mps 747 mmHg 26%
    10:00 +45°C° 0 mm 8 mps 747 mmHg 24%
    11:00 +46°C° 0 mm 8 mps 747 mmHg 22%
    12:00 +48°C° 0 mm 8 mps 746 mmHg 20%
    13:00 +48°C° 0 mm 8 mps 746 mmHg 21%
    14:00 +47°C° 0 mm 7 mps 746 mmHg 22%
    15:00 +46°C° 0 mm 7 mps 745 mmHg 22%
    16:00 +45°C° 0 mm 6 mps 745 mmHg 25%
    17:00 +44°C° 0 mm 6 mps 745 mmHg 27%
    18:00 +42°C° 0 mm 5 mps 745 mmHg 29%
    19:00 +41°C° 0 mm 4 mps 745 mmHg 30%
    20:00 +40°C° 0 mm 3 mps 746 mmHg 30%
    21:00 +39°C° 0 mm 3 mps 746 mmHg 31%
    22:00 +39°C° 0 mm 2 mps 746 mmHg 29%
    23:00 +39°C° 0 mm 2 mps 745 mmHg 27%

    28 June, Thursday

    Time Temperature Precipitation Wind Pressure Humidity
    00:00 +39°C° 0 mm 2 mps 745 mmHg 25%
    01:00 +38°C° 0 mm 2 mps 745 mmHg 25%
    02:00 +38°C° 0 mm 2 mps 745 mmHg 25%
    03:00 +38°C° 0 mm 2 mps 745 mmHg 25%
    04:00 +38°C° 0 mm 2 mps 745 mmHg 26%
    05:00 +38°C° 0 mm 3 mps 745 mmHg 27%
    06:00 +38°C° 0 mm 3 mps 746 mmHg 28%
    07:00 +41°C° 0 mm 4 mps 746 mmHg 29%
    08:00 +42°C° 0 mm 5 mps 746 mmHg 30%
    09:00 +44°C° 0 mm 6 mps 746 mmHg 31%
    10:00 +45°C° 0 mm 5 mps 746 mmHg 30%
    11:00 +45°C° 0 mm 5 mps 746 mmHg 29%
    12:00 +46°C° 0 mm 5 mps 746 mmHg 27%
    13:00 +45°C° 0 mm 5 mps 746 mmHg 28%
    14:00 +45°C° 0 mm 5 mps 746 mmHg 28%
    15:00 +45°C° 0 mm 5 mps 745 mmHg 28%
    16:00 +43°C° 0 mm 4 mps 746 mmHg 31%
    17:00 +42°C° 0 mm 4 mps 746 mmHg 34%
    18:00 +40°C° 0 mm 3 mps 746 mmHg 36%
    19:00 +39°C° 0 mm 3 mps 746 mmHg 37%
    20:00 +39°C° 0 mm 3 mps 746 mmHg 38%
    21:00 +38°C° 0 mm 2 mps 746 mmHg 39%
    22:00 +38°C° 0 mm 3 mps 746 mmHg 40%
    23:00 +37°C° 0 mm 3 mps 746 mmHg 41%
    Show more